User: anonymous   Login
Location: Unspecified
(0.0000°N, 0.0000°E)
Time: 07:26:37
(UTC+00:00)
Language:

MTI - Orbit

View from above orbital plane
View from above orbital plane
View from above satellite
View from above satellite

Ground track
Ground track

The orbit data is extracted from the following two-line orbital elements,

1 26102U 00014A   18116.15955807  .00004270  00000-0  78107-4 0  9993
2 26102  97.5851 307.6901 0006299 208.4143 288.7716 15.49955070  2963
Epoch (UTC): 26 April 2018 03:49:45
Eccentricity: 0.0006299
inclination: 97.5851°
perigee height: 412 km
apogee height: 421 km
right ascension of ascending node: 307.6901°
argument of perigee: 208.4143°
revolutions per day: 15.49955070
mean anomaly at epoch: 288.7716°
orbit number at epoch: 296

The dashed part of the orbit path shows where the satellite is in the earth's shadow,  

DLR